Athens, TX

1:48 AM CDT on March 28, 2017 (GMT -0500)
Athens

Weather History for KF44 - January, 2013

Change the Weather History Date:

Monday, January 14, 2013

  Actual Average (KTYR) Record (KTYR)
Temperature  
Mean Temperature 36 °F -  
Max Temperature 42 °F 55 °F 79 °F (1928)
Min Temperature 30 °F 37 °F 1 °F (1982)
Degree Days  
Heating Degree Days 29    
Moisture  
Dew Point 24 °F    
Average Humidity 65    
Maximum Humidity 80    
Minimum Humidity 53    
Precipitation  
Precipitation 0.01 in - - ()
Sea Level Pressure  
Sea Level Pressure 30.22 in    
Wind  
Wind Speed 9 mph (NE)    
Max Wind Speed 13 mph    
Max Gust Speed 20 mph    
Visibility 10 miles    
Events Snow , Thunderstorm    
Averages and records for this station are not official NWS values.
T = Trace of Precipitation, MM = Missing Value Source: NWS Daily Summary

Daily Weather History Graph

Daily Weather History Graph

Search for Another Location

Airport or City:

Trip Planner

Search our weather history database for the weather conditions in past years. The results will help you decide how hot, cold, wet, or windy it might be!

Date:

Astronomy

Jan. 14, 2013 Rise Set
Actual Time 7:24 AM CST 5:40 PM CST
Civil Twilight 6:58 AM CST 6:07 PM CST
Nautical Twilight 6:28 AM CST 6:37 PM CST
Astronomical Twilight 5:58 AM CST 7:06 PM CST
Moon 9:12 AM CST (1/14) 9:11 PM CST (1/14)
Length of Visible Light 11h 09m
Length of Day
10h 16m
Waxing Crescent, 11% of the Moon is Illuminated
Jan 14
Waxing Crescent
Jan 18
First Quarter
Jan 26
Full
Feb 3
Last Quarter
Feb 10
New

Hourly Weather History & Observations

Time (CST) Temp. Windchill Dew Point Humidity Pressure Visibility Wind Dir Wind Speed Gust Speed Precip Events Conditions
12:15 AM 32.0 °F 23.6 °F 23.0 °F 69% 30.23 in 10.0 mi North 10.4 mph - N/A   Clear
12:35 AM 32.0 °F 23.6 °F 23.0 °F 69% 30.22 in 10.0 mi NNE 10.4 mph - N/A   Clear
1:15 AM 32.0 °F 23.6 °F 23.0 °F 69% 30.21 in 10.0 mi NNE 10.4 mph - N/A   Clear
1:35 AM 32.0 °F 23.0 °F 23.0 °F 69% 30.20 in 10.0 mi NNE 11.5 mph - N/A   Clear
1:55 AM 30.2 °F 24.3 °F 23.0 °F 75% 30.20 in 10.0 mi NNE 5.8 mph 11.5 mph N/A   Clear
2:15 AM 30.2 °F 22.6 °F 23.0 °F 75% 30.20 in 10.0 mi NE 8.1 mph - N/A   Clear
2:35 AM 30.2 °F 21.9 °F 23.0 °F 75% 30.21 in 10.0 mi NNE 9.2 mph - N/A   Clear
2:55 AM 30.2 °F 22.6 °F 23.0 °F 75% 30.22 in 10.0 mi NNE 8.1 mph - N/A   Mostly Cloudy
3:35 AM 30.2 °F 22.6 °F 23.0 °F 75% 30.24 in 10.0 mi North 8.1 mph - N/A   Scattered Clouds
4:15 AM 30.2 °F 21.9 °F 23.0 °F 75% 30.23 in 10.0 mi North 9.2 mph - N/A   Mostly Cloudy
4:35 AM 30.2 °F 23.4 °F 23.0 °F 75% 30.27 in 10.0 mi North 6.9 mph - N/A   Overcast
4:55 AM 30.2 °F 20.2 °F 23.0 °F 75% 30.23 in 10.0 mi North 12.7 mph - N/A   Overcast
5:15 AM 32.0 °F 23.6 °F 23.0 °F 69% 30.24 in 10.0 mi NNE 10.4 mph - N/A   Mostly Cloudy
5:35 AM 32.0 °F 24.2 °F 23.0 °F 69% 30.24 in 10.0 mi NNE 9.2 mph - N/A   Overcast
5:55 AM 30.2 °F 21.9 °F 23.0 °F 75% 30.24 in 10.0 mi North 9.2 mph 17.3 mph N/A   Overcast
6:15 AM 30.2 °F 20.8 °F 23.0 °F 75% 30.27 in 10.0 mi North 11.5 mph - N/A Snow Light Snow
6:35 AM 32.0 °F 22.5 °F 23.0 °F 69% 30.28 in 10.0 mi North 12.7 mph - N/A Snow Light Snow
6:55 AM 30.2 °F 20.8 °F 23.0 °F 75% 30.30 in 10.0 mi North 11.5 mph - N/A Snow Light Snow
7:15 AM 30.2 °F 21.3 °F 24.8 °F 80% 30.29 in 7.0 mi NE 10.4 mph - N/A   Overcast
7:55 AM 30.2 °F 21.3 °F 24.8 °F 80% 30.29 in 10.0 mi NNE 10.4 mph - 0.01 in Snow Light Snow
8:15 AM 30.2 °F 21.3 °F 24.8 °F 80% 30.29 in 10.0 mi NNE 10.4 mph - N/A Snow , Thunderstorm Light Thunderstorms and Snow
8:55 AM 30.2 °F 20.8 °F 24.8 °F 80% 30.28 in 10.0 mi NE 11.5 mph 16.1 mph N/A   Overcast
9:15 AM 30.2 °F 20.2 °F 24.8 °F 80% 30.29 in 10.0 mi NNE 12.7 mph 17.3 mph N/A   Overcast
9:35 AM 32.0 °F 23.6 °F 24.8 °F 75% 30.28 in 10.0 mi NNE 10.4 mph - N/A   Overcast
9:55 AM 32.0 °F 24.2 °F 24.8 °F 75% 30.28 in 10.0 mi NNE 9.2 mph 16.1 mph N/A   Overcast
10:15 AM 32.0 °F 23.6 °F 24.8 °F 75% 30.27 in 10.0 mi NE 10.4 mph 16.1 mph N/A   Overcast
10:35 AM 32.0 °F 23.6 °F 24.8 °F 75% 30.27 in 10.0 mi NE 10.4 mph - N/A   Overcast
10:55 AM 32.0 °F 24.2 °F 24.8 °F 75% 30.26 in 10.0 mi NNE 9.2 mph 16.1 mph N/A   Overcast
11:15 AM 33.8 °F 26.4 °F 26.6 °F 75% 30.27 in 10.0 mi NNE 9.2 mph - N/A   Overcast
11:35 AM 35.6 °F 28.0 °F 26.6 °F 70% 30.26 in 10.0 mi NNE 10.4 mph - N/A   Overcast
12:15 PM 35.6 °F 29.9 °F 26.6 °F 70% 30.24 in 10.0 mi NE 6.9 mph - N/A   Overcast
12:35 PM 37.4 °F 32.1 °F 26.6 °F 65% 30.22 in 10.0 mi NNE 6.9 mph - N/A   Overcast
12:55 PM 37.4 °F 30.3 °F 26.6 °F 65% 30.21 in 10.0 mi NE 10.4 mph - N/A   Overcast
1:15 PM 41.0 °F 34.3 °F 24.8 °F 53% 30.20 in 10.0 mi NNE 11.5 mph - N/A   Mostly Cloudy
1:35 PM 41.0 °F 35.8 °F 26.6 °F 57% 30.20 in 10.0 mi NNE 8.1 mph 19.6 mph N/A   Scattered Clouds
1:55 PM 41.0 °F 35.2 °F 26.6 °F 57% 30.20 in 10.0 mi ENE 9.2 mph 16.1 mph N/A   Mostly Cloudy
2:15 PM 41.0 °F 35.8 °F 24.8 °F 53% 30.20 in 10.0 mi NNE 8.1 mph - N/A   Scattered Clouds
2:35 PM 42.8 °F 38.0 °F 26.6 °F 53% 30.20 in 10.0 mi ENE 8.1 mph - N/A   Clear
2:55 PM 42.8 °F 36.6 °F 26.6 °F 53% 30.20 in 10.0 mi NNE 11.5 mph - N/A   Clear
3:15 PM 42.8 °F 37.5 °F 26.6 °F 53% 30.20 in 10.0 mi NE 9.2 mph 16.1 mph N/A   Clear
3:35 PM 42.8 °F 37.0 °F 26.6 °F 53% 30.20 in 10.0 mi ENE 10.4 mph - N/A   Clear
3:55 PM 42.8 °F 37.5 °F 26.6 °F 53% 30.20 in 10.0 mi NE 9.2 mph - N/A   Clear
4:15 PM 42.8 °F 38.0 °F 26.6 °F 53% 30.20 in 10.0 mi NE 8.1 mph - N/A   Clear
4:35 PM 42.8 °F 39.3 °F 26.6 °F 53% 30.20 in 10.0 mi NE 5.8 mph - N/A   Clear
4:55 PM 42.8 °F 38.0 °F 26.6 °F 53% 30.20 in 10.0 mi NE 8.1 mph - N/A   Clear
5:15 PM 41.0 °F 36.4 °F 24.8 °F 53% 30.20 in 10.0 mi NE 6.9 mph - N/A   Clear
5:35 PM 41.0 °F 37.1 °F 24.8 °F 53% 30.20 in 10.0 mi ENE 5.8 mph - N/A   Clear
5:55 PM 41.0 °F 39.0 °F 24.8 °F 53% 30.20 in 10.0 mi NE 3.5 mph - N/A   Clear
6:15 PM 39.2 °F 35.9 °F 24.8 °F 56% 30.21 in 10.0 mi NE 4.6 mph - N/A   Clear
6:35 PM 39.2 °F 37.0 °F 24.8 °F 56% 30.21 in 10.0 mi NNE 3.5 mph - N/A   Clear
6:55 PM 37.4 °F 34.9 °F 24.8 °F 60% 30.21 in 10.0 mi NE 3.5 mph - N/A   Clear
7:15 PM 37.4 °F 33.8 °F 26.6 °F 65% 30.21 in 10.0 mi NE 4.6 mph - N/A   Clear
7:35 PM 37.4 °F 33.8 °F 24.8 °F 60% 30.21 in 10.0 mi NE 4.6 mph - N/A   Clear
7:55 PM 37.4 °F 31.4 °F 23.0 °F 56% 30.20 in 10.0 mi NE 8.1 mph - N/A   Clear
8:15 PM 37.4 °F 31.4 °F 23.0 °F 56% 30.19 in 10.0 mi NE 8.1 mph - N/A   Clear
8:35 PM 35.6 °F 29.2 °F 23.0 °F 60% 30.20 in 10.0 mi NE 8.1 mph - N/A   Clear
8:55 PM 35.6 °F 29.2 °F 23.0 °F 60% 30.19 in 10.0 mi NE 8.1 mph - N/A   Clear
9:15 PM 35.6 °F 29.9 °F 23.0 °F 60% 30.20 in 10.0 mi NE 6.9 mph - N/A   Clear
9:35 PM 35.6 °F 30.7 °F 23.0 °F 60% 30.20 in 10.0 mi NE 5.8 mph - N/A   Mostly Cloudy
9:55 PM 35.6 °F 29.9 °F 23.0 °F 60% 30.20 in 10.0 mi NE 6.9 mph - N/A   Overcast
10:15 PM 33.8 °F 27.0 °F 23.0 °F 65% 30.20 in 10.0 mi NE 8.1 mph - N/A   Overcast
10:35 PM 33.8 °F 26.4 °F 23.0 °F 65% 30.21 in 10.0 mi NE 9.2 mph - N/A   Scattered Clouds
10:55 PM 33.8 °F 27.7 °F 23.0 °F 65% 30.19 in 10.0 mi ENE 6.9 mph 16.1 mph N/A   Mostly Cloudy
11:15 PM 33.8 °F 27.0 °F 21.2 °F 60% 30.19 in 10.0 mi NE 8.1 mph - N/A   Mostly Cloudy
11:35 PM 33.8 °F 26.4 °F 21.2 °F 60% 30.19 in 10.0 mi NE 9.2 mph - N/A   Overcast
11:55 PM 33.8 °F 27.7 °F 21.2 °F 60% 30.19 in 10.0 mi NE 6.9 mph - N/A   Overcast